2022-147A (54227 NORAD) Tracking and Keplerian Element Data

This shows tracking and keplerian element data for the satellite.

Feedback or suggestion? Click here.




ElementValue
Catalog54227
Name2022-147A
Epoch Orbit246
Epoch Day325.2442199
Epoch Year2022
RAAN327.5157
Inclination97.652
Eccentricity0.0011722
Argument of Perigee246.793
Mean Anonmoly113.2042
Mean Motion14.92950546
Decay Rate3.45E-05
L11 54227U 22147A 22325.24421990 .00003450 00000+0 33722-3 0 9992
L22 54227 97.6520 327.5157 0011722 246.7930 113.2042 14.92950546 2465



Live tracking and technical data element details for 2022-147A (NORAD 54227). 2022-147A can be tracked NOW for your location showing map with azimuth and elevation plus other details from your city location.







IsCatalogInMostPopularTable: catalog: 54227, numindb: 4
Update: records affected: 1



GetName: 54227 2022-147A

Hit Count: updated at: Sun, 04 Dec 2022 22:24:14 GMT